Find Starlink 2144

NORAD ID: 47734 Int'l Des: 2021-017 Owner: SPXS Country: US Constellation: starlink operational
LEOCIRCULAR

現在のビュー

3D地球を読み込み中...

About Starlink 2144

Starlink 2144 (NORAD 47734) is a starlink constellation satellite (v1.0) launched Mar 4, 2021 by SPXS of US. It operates in LEO, CIRCULAR orbit with a mass of 260.00 kg.

次回通過

Passes for default location (London). Set your location on the main map for personalized predictions.

高度履歴

Loading altitude history...

軌道要素

1 47734U 21017N 26263.55791539 .00000054 00000-0 13514-4 0 9996
2 47734 53.1616 17.0189 0001025 86.3310 273.7809 15.31699459307721
Epoch: Sep 20, 2026 • Age: 16 hours

現在のステータス

高度 476.3 km
遠地点 / 近地点 N/A
速度 7.63 km/s
衛星直下点 51.92°N, 4.84°E
打ち上げ日 Mar 4, 2021
運用期間 5.5 years
タイプ internet

技術仕様

分類 Payload
質量 260.00 kg
乾燥質量 248.00 kg
長さ 0.20 m
スパン 9.00 m
形状 ? Box + pan
製造者 SPXS
バスタイプ Starlink
フェーズステータス In Orbit
所有者/国 SPXS/US

Most Searched